Weather History for Spirit of St Louis, MO

Change the Weather History Date:

Tuesday, May 14, 2013

  Actual Average Record
Temperature  
Mean Temperature 71 °F -  
Max Temperature 91 °F 74 °F 91 °F (2013)
Min Temperature 51 °F 52 °F 39 °F (2000)
Cooling Degree Days 6    
Growing Degree Days 21 (Base 50)    
Moisture  
Dew Point 50 °F    
Average Humidity 44    
Maximum Humidity 86    
Minimum Humidity 24    
Precipitation  
Precipitation 0.00 in - - ()
Sea Level Pressure  
Sea Level Pressure 29.87 in    
Wind  
Wind Speed 8 mph (SW)    
Max Wind Speed 18 mph    
Max Gust Speed 25 mph    
Visibility 10 miles    
Events      
Averages and records for this station are not official NWS values.
T = Trace of Precipitation, MM = Missing Value Source: NWS Daily Summary

Daily Weather History Graph

Daily Weather History Graph

Search for Another Location

Airport:

Trip Planner

Search our weather history database for the weather conditions in past years. The results will help you decide how hot, cold, wet, or windy it might be!

Date:

Astronomy

May. 14, 2013 Rise Set
Actual Time 5:51 AM CDT 8:07 PM CDT
Civil Twilight 5:21 AM CDT 8:37 PM CDT
Nautical Twilight 4:44 AM CDT 9:13 PM CDT
Astronomical Twilight 4:04 AM CDT 9:54 PM CDT
Moon 9:31 AM CDT (5/14) 11:54 PM CDT (5/14)
Length of Visible Light 15h 15m
Length of Day
14h 15m
Waxing Crescent, 19% of the Moon is Illuminated
May 14
Waxing Crescent
May 17
First Quarter
May 24
Full
May 31
Last Quarter
Jun 8
New

Hourly Weather History & Observations

Time (CDT) Temp. Heat Index Dew Point Humidity Pressure Visibility Wind Dir Wind Speed Gust Speed Precip Events Conditions
12:54 AM 63.0 °F - 44.1 °F 50% 29.98 in 10.0 mi South 6.9 mph - N/A   Clear
1:54 AM 62.1 °F - 45.0 °F 53% 29.96 in 10.0 mi Calm Calm - N/A   Clear
2:54 AM 57.0 °F - 46.9 °F 69% 29.95 in 10.0 mi Calm Calm - N/A   Clear
3:54 AM 54.0 °F - 46.9 °F 77% 29.94 in 10.0 mi East 3.5 mph - N/A   Clear
4:54 AM 52.0 °F - 46.9 °F 83% 29.93 in 10.0 mi Calm Calm - N/A   Clear
5:54 AM 51.1 °F - 46.9 °F 86% 29.92 in 10.0 mi Calm Calm - N/A   Scattered Clouds
6:54 AM 53.1 °F - 48.9 °F 86% 29.92 in 10.0 mi Calm Calm - N/A   Scattered Clouds
7:54 AM 66.9 °F - 52.0 °F 59% 29.90 in 10.0 mi SW 8.1 mph - N/A   Clear
8:54 AM 72.0 °F - 53.1 °F 51% 29.89 in 10.0 mi WSW 8.1 mph - N/A   Clear
9:54 AM 75.9 °F - 53.1 °F 45% 29.88 in 10.0 mi WSW 13.8 mph 19.6 mph N/A   Partly Cloudy
10:54 AM 82.0 °F 81.4 °F 55.0 °F 39% 29.87 in 10.0 mi WSW 11.5 mph - N/A   Clear
11:54 AM 86.0 °F - 52.0 °F 31% 29.87 in 10.0 mi WSW 16.1 mph 24.2 mph N/A   Clear
12:54 PM 88.0 °F 85.7 °F 53.1 °F 30% 29.85 in 10.0 mi WSW 16.1 mph 21.9 mph N/A   Clear
1:54 PM 89.1 °F 86.7 °F 53.1 °F 29% 29.83 in 10.0 mi SW 17.3 mph 24.2 mph N/A   Clear
2:54 PM 90.0 °F 87.5 °F 53.1 °F 28% 29.83 in 10.0 mi WSW 18.4 mph 25.3 mph N/A   Clear
3:54 PM 91.0 °F - 51.1 °F 25% 29.81 in 10.0 mi WSW 16.1 mph 25.3 mph N/A   Clear
4:54 PM 91.9 °F - 51.1 °F 25% 29.80 in 10.0 mi WSW 15.0 mph 21.9 mph N/A   Clear
5:54 PM 91.0 °F - 50.0 °F 24% 29.79 in 10.0 mi WSW 15.0 mph - N/A   Clear
6:54 PM 89.1 °F - 48.9 °F 25% 29.78 in 10.0 mi WSW 12.7 mph 24.2 mph N/A   Clear
7:54 PM 84.9 °F - 48.9 °F 29% 29.78 in 10.0 mi SW 11.5 mph - N/A   Clear
8:54 PM 84.0 °F - 48.0 °F 28% 29.80 in 10.0 mi SW 15.0 mph - N/A   Clear
9:54 PM 82.0 °F - 46.9 °F 29% 29.82 in 10.0 mi SW 16.1 mph 24.2 mph N/A   Clear
10:54 PM 80.1 °F - 46.9 °F 31% 29.82 in 10.0 mi WSW 16.1 mph 23.0 mph N/A   Clear
11:54 PM 78.1 °F - 48.0 °F 35% 29.84 in 10.0 mi WSW 11.5 mph 19.6 mph N/A   Clear